GFSSW_500_temp_288.txt.gz
Temp
-5 -5 -5 -4 -4 -4 -4 -4 -4 -4 -4 -4 -4 -4 -5 -5 -5 -5 -5 -5 -5 -5 -6 -6 -6 -5 -5 -5 -5 -5 -5 -5 -5 -5 -5 -4 -4 -5 -5 -4 -5 -5 -5 -5 -6
-5 -5 -4 -4 -4 -4 -4 -4 -4 -3 -4 -3 -4 -4 -5 -5 -5 -4 -5 -6 -5 -4 -5 -5 -5 -5 -5 -5 -4 -4 -5 -4 -4 -4 -4 -5 -4 -4 -4 -4 -5 -5 -5 -5 -6
-4 -4 -4 -4 -4 -4 -4 -3 -3 -3 -3 -3 -3 -4 -5 -4 -5 -4 -3 -4 -5 -5 -4 -5 -5 -5 -5 -4 -4 -4 -4 -4 -4 -4 -4 -5 -5 -4 -4 -4 -5 -4 -5 -5 -6
-4 -4 -4 -4 -4 -4 -4 -3 -3 -3 -3 -3 -3 -4 -4 -5 -4 -4 -4 -4 -4 -4 -4 -5 -4 -4 -5 -4 -4 -4 -4 -4 -4 -4 -4 -5 -5 -5 -5 -4 -5 -5 -4 -5 -5
-4 -4 -4 -4 -3 -4 -3 -3 -3 -3 -3 -3 -3 -4 -4 -4 -5 -4 -5 -4 -4 -4 -4 -5 -4 -4 -4 -4 -5 -4 -4 -4 -4 -3 -4 -4 -4 -4 -4 -4 -4 -5 -5 -4 -5
-4 -4 -4 -3 -3 -3 -3 -3 -3 -3 -3 -3 -3 -3 -3 -4 -3 -4 -4 -4 -4 -4 -4 -5 -4 -4 -4 -4 -4 -4 -4 -4 -3 -3 -3 -4 -4 -4 -4 -4 -5 -5 -5 -5 -5
-4 -4 -4 -3 -3 -3 -3 -3 -3 -3 -2 -3 -3 -3 -3 -4 -4 -3 -4 -4 -4 -4 -4 -4 -4 -4 -5 -4 -5 -4 -4 -4 -4 -3 -3 -3 -4 -4 -4 -4 -4 -4 -5 -5 -5
-4 -4 -4 -4 -3 -3 -3 -3 -3 -3 -3 -3 -3 -3 -3 -3 -4 -3 -4 -3 -4 -4 -4 -5 -5 -5 -5 -5 -4 -4 -5 -5 -4 -4 -3 -3 -3 -4 -4 -4 -4 -4 -5 -5 -5
-4 -4 -4 -4 -4 -3 -3 -3 -3 -3 -3 -3 -3 -3 -3 -3 -3 -3 -4 -4 -4 -4 -5 -5 -4 -5 -5 -5 -5 -5 -4 -5 -5 -4 -4 -4 -4 -3 -4 -4 -4 -4 -4 -5 -5
-4 -4 -4 -4 -4 -3 -3 -3 -3 -3 -3 -3 -3 -3 -3 -3 -4 -4 -4 -4 -4 -4 -4 -4 -5 -5 -5 -5 -5 -5 -5 -5 -5 -5 -5 -4 -4 -4 -4 -4 -4 -4 -5 -4 -4
-4 -4 -4 -4 -4 -4 -4 -4 -3 -3 -3 -3 -3 -3 -3 -3 -3 -4 -4 -4 -4 -5 -4 -5 -6 -6 -5 -6 -6 -5 -5 -5 -5 -5 -4 -4 -4 -4 -4 -4 -4 -4 -4 -5 -5
-5 -5 -4 -4 -4 -4 -4 -4 -4 -4 -3 -3 -3 -3 -3 -3 -3 -3 -4 -4 -4 -4 -5 -5 -6 -5 -6 -6 -6 -6 -6 -6 -6 -5 -6 -5 -5 -5 -4 -4 -4 -4 -5 -5 -5
-5 -5 -5 -5 -4 -4 -4 -4 -4 -4 -4 -4 -3 -3 -3 -3 -3 -3 -4 -4 -4 -5 -5 -5 -6 -5 -6 -6 -6 -7 -6 -7 -7 -6 -6 -6 -6 -6 -6 -5 -5 -5 -5 -5 -5
-5 -5 -5 -5 -5 -5 -5 -4 -4 -4 -4 -4 -4 -4 -4 -4 -3 -3 -4 -4 -4 -4 -5 -5 -4 -5 -6 -6 -6 -8 -7 -7 -7 -6 -7 -7 -5 -6 -7 -6 -6 -5 -5 -5 -5
-5 -5 -5 -5 -5 -5 -5 -5 -5 -5 -5 -5 -4 -5 -5 -5 -4 -4 -4 -4 -4 -4 -5 -6 -5 -5 -6 -6 -6 -6 -7 -7 -7 -8 -7 -7 -7 -7 -7 -7 -7 -6 -5 -5 -5
-5 -5 -5 -5 -5 -5 -6 -6 -6 -6 -5 -5 -5 -5 -5 -5 -5 -5 -5 -5 -5 -4 -5 -5 -5 -6 -5 -6 -6 -5 -6 -7 -7 -9 -8 -8 -7 -8 -7 -7 -7 -7 -6 -6 -6
-5 -5 -5 -5 -5 -5 -6 -6 -6 -6 -6 -6 -6 -6 -6 -6 -5 -5 -5 -5 -5 -5 -6 -6 -6 -6 -6 -7 -5 -6 -7 -8 -8 -8 -8 -8 -7 -8 -6 -6 -7 -7 -7 -7 -6
-5 -5 -5 -5 -5 -5 -5 -6 -6 -6 -6 -6 -7 -7 -6 -7 -6 -6 -6 -6 -6 -6 -6 -6 -6 -6 -7 -8 -7 -7 -9 -9 -8 -8 -8 -7 -7 -7 -6 -7 -7 -7 -7 -8 -7
-6 -6 -5 -5 -6 -6 -6 -6 -6 -6 -7 -7 -8 -8 -8 -7 -7 -7 -7 -7 -7 -7 -7 -7 -10 -6 -7 -7 -8 -8 -8 -9 -9 -9 -8 -9 -5 -6 -6 -6 -7 -7 -7 -8 -7
-6 -6 -6 -6 -6 -6 -6 -7 -6 -7 -8 -8 -9 -9 -9 -9 -9 -8 -8 -8 -8 -7 -8 -8 -10 -8 -7 -8 -8 -8 -9 -9 -9 -9 -9 -9 -6 -7 -6 -6 -6 -7 -7 -7 -8
-6 -6 -6 -6 -6 -6 -7 -7 -7 -8 -8 -9 -9 -9 -10 -10 -9 -9 -10 -9 -9 -9 -9 -9 -9 -9 -8 -8 -10 -8 -9 -9 -10 -9 -9 -9 -9 -6 -7 -7 -6 -7 -7 -7 -7
-6 -6 -7 -6 -7 -7 -7 -7 -8 -8 -8 -9 -9 -10 -10 -10 -11 -11 -11 -10 -10 -10 -9 -9 -11 -11 -10 -9 -9 -9 -10 -9 -10 -10 -9 -8 -9 -8 -8 -7 -8 -7 -7 -8 -8
-7 -7 -7 -7 -7 -8 -8 -8 -8 -9 -9 -9 -10 -11 -11 -11 -12 -12 -11 -10 -11 -11 -11 -11 -11 -12 -11 -10 -10 -10 -10 -9 -9 -9 -10 -9 -10 -8 -8 -8 -8 -8 -8 -8 -8
-7 -7 -7 -7 -8 -8 -8 -9 -9 -9 -10 -11 -12 -12 -12 -12 -12 -12 -12 -11 -11 -12 -12 -12 -12 -12 -11 -11 -12 -11 -11 -10 -10 -11 -11 -11 -10 -9 -9 -8 -8 -9 -9 -9 -9
-8 -8 -8 -8 -9 -8 -9 -9 -9 -10 -11 -12 -13 -13 -13 -13 -13 -12 -12 -12 -12 -12 -13 -13 -13 -12 -12 -12 -12 -12 -12 -12 -11 -11 -11 -11 -11 -9 -9 -9 -9 -9 -9 -9 -9
-8 -8 -8 -9 -9 -9 -9 -10 -10 -11 -13 -13 -13 -13 -13 -13 -13 -13 -12 -12 -12 -12 -12 -13 -13 -13 -13 -13 -13 -12 -12 -12 -12 -11 -11 -11 -11 -10 -10 -10 -9 -9 -9 -9 -9
-9 -9 -9 -9 -9 -10 -10 -10 -11 -13 -14 -14 -13 -13 -13 -14 -13 -13 -13 -13 -13 -13 -12 -12 -13 -13 -13 -13 -12 -13 -12 -12 -12 -11 -11 -11 -11 -11 -10 -10 -10 -10 -10 -10 -9

GFSSW_500_temp_294.txt.gz
Temp
-5 -4 -4 -4 -4 -4 -4 -4 -4 -4 -4 -4 -4 -5 -5 -5 -5 -5 -5 -5 -4 -3 -4 -4 -5 -5 -6 -6 -6 -6 -5 -5 -4 -4 -4 -4 -4 -4 -4 -4 -5 -4 -4 -4 -5
-5 -4 -4 -4 -4 -4 -4 -4 -4 -4 -4 -4 -4 -4 -5 -5 -5 -5 -4 -5 -5 -4 -3 -4 -5 -4 -4 -5 -6 -6 -6 -5 -4 -4 -4 -4 -4 -4 -4 -5 -5 -5 -5 -5 -5
-5 -4 -4 -4 -4 -4 -4 -4 -4 -4 -4 -4 -4 -4 -4 -5 -5 -5 -5 -5 -5 -3 -4 -3 -5 -5 -5 -5 -5 -5 -5 -4 -4 -4 -4 -4 -4 -5 -5 -5 -4 -4 -4 -5 -5
-5 -4 -4 -4 -4 -4 -4 -3 -4 -4 -4 -4 -4 -4 -5 -5 -5 -4 -5 -4 -4 -4 -4 -3 -4 -5 -5 -5 -4 -3 -4 -3 -3 -3 -4 -4 -4 -4 -4 -5 -5 -5 -5 -5 -5
-4 -4 -4 -4 -4 -3 -3 -3 -3 -4 -4 -3 -3 -3 -4 -4 -5 -4 -4 -4 -4 -4 -4 -3 -4 -4 -4 -5 -5 -4 -4 -4 -3 -3 -3 -4 -4 -4 -4 -4 -4 -4 -5 -5 -5
-4 -4 -4 -3 -3 -3 -3 -3 -3 -3 -3 -3 -3 -3 -3 -4 -4 -5 -5 -4 -4 -4 -4 -4 -4 -3 -4 -6 -5 -5 -5 -4 -4 -4 -3 -3 -4 -4 -4 -4 -4 -4 -4 -5 -5
-4 -4 -4 -3 -3 -3 -3 -3 -3 -3 -3 -3 -3 -3 -3 -3 -4 -4 -5 -4 -4 -4 -4 -4 -4 -5 -4 -4 -5 -5 -4 -4 -4 -4 -4 -3 -3 -4 -4 -4 -4 -4 -4 -4 -4
-4 -4 -4 -3 -3 -3 -3 -3 -3 -3 -3 -3 -3 -3 -3 -3 -3 -4 -4 -4 -5 -4 -5 -5 -5 -4 -3 -4 -5 -5 -4 -3 -4 -4 -4 -4 -4 -3 -4 -4 -4 -4 -4 -4 -4
-4 -4 -3 -3 -3 -3 -3 -3 -2 -3 -3 -3 -3 -3 -3 -3 -3 -3 -3 -4 -4 -4 -4 -5 -6 -4 -3 -3 -4 -4 -4 -4 -4 -3 -4 -5 -4 -4 -4 -4 -4 -4 -4 -4 -4
-4 -4 -4 -3 -3 -3 -3 -3 -2 -2 -3 -3 -3 -3 -2 -3 -3 -3 -3 -3 -4 -5 -5 -5 -5 -5 -5 -4 -5 -5 -3 -3 -4 -5 -4 -4 -3 -4 -4 -4 -4 -4 -4 -4 -4
-4 -4 -4 -3 -3 -3 -3 -3 -3 -3 -3 -3 -3 -2 -2 -3 -3 -3 -3 -3 -4 -3 -4 -4 -5 -5 -5 -5 -6 -4 -4 -5 -5 -4 -5 -4 -3 -4 -4 -3 -4 -4 -4 -4 -4
-4 -4 -4 -4 -3 -3 -3 -3 -3 -3 -3 -3 -3 -3 -3 -3 -3 -3 -3 -3 -3 -4 -4 -4 -5 -6 -6 -5 -5 -5 -5 -5 -5 -6 -5 -4 -4 -4 -4 -4 -4 -4 -4 -4 -4
-4 -4 -4 -4 -4 -4 -3 -3 -3 -3 -3 -3 -3 -3 -3 -3 -3 -3 -3 -3 -3 -3 -4 -5 -7 -6 -6 -5 -5 -7 -6 -6 -6 -6 -5 -5 -5 -5 -5 -5 -4 -4 -3 -4 -4
-4 -4 -4 -4 -4 -4 -4 -4 -4 -4 -4 -3 -3 -3 -3 -3 -3 -3 -4 -4 -3 -3 -4 -5 -7 -5 -5 -5 -6 -7 -6 -6 -6 -6 -6 -6 -6 -5 -5 -4 -4 -4 -4 -4 -4
-5 -5 -4 -4 -4 -4 -4 -4 -4 -4 -4 -4 -4 -3 -4 -4 -4 -4 -4 -4 -4 -4 -4 -5 -5 -4 -4 -5 -7 -6 -6 -6 -7 -6 -5 -5 -6 -5 -6 -5 -4 -3 -5 -5 -4
-5 -5 -5 -5 -4 -5 -4 -5 -4 -5 -6 -5 -4 -4 -4 -4 -4 -4 -4 -4 -4 -4 -4 -4 -5 -3 -3 -5 -4 -5 -4 -5 -5 -6 -6 -5 -5 -5 -5 -5 -4 -5 -5 -6 -5
-4 -4 -4 -5 -5 -5 -5 -5 -5 -5 -6 -6 -5 -4 -5 -5 -5 -5 -4 -5 -5 -5 -5 -5 -5 -4 -5 -5 -5 -5 -6 -7 -6 -6 -6 -5 -5 -6 -5 -5 -5 -4 -5 -5 -5
-4 -4 -4 -5 -5 -5 -5 -5 -5 -6 -6 -7 -6 -6 -5 -5 -6 -6 -5 -5 -5 -5 -6 -7 -6 -7 -5 -6 -6 -6 -6 -7 -6 -5 -5 -5 -6 -7 -6 -6 -6 -7 -7 -5 -5
-4 -4 -5 -5 -5 -5 -5 -5 -6 -7 -7 -8 -5 -6 -7 -7 -7 -8 -8 -6 -6 -6 -6 -8 -8 -8 -8 -7 -7 -7 -7 -6 -7 -6 -6 -7 -7 -7 -7 -7 -7 -7 -7 -6 -5
-5 -5 -5 -5 -5 -5 -5 -6 -7 -7 -5 -5 -6 -7 -8 -8 -9 -9 -9 -9 -8 -9 -9 -8 -8 -8 -8 -9 -7 -7 -8 -8 -8 -7 -7 -6 -7 -7 -7 -8 -7 -7 -7 -7 -7
-5 -5 -5 -6 -6 -6 -6 -6 -7 -7 -5 -6 -7 -7 -8 -9 -9 -9 -9 -9 -9 -9 -9 -9 -9 -8 -9 -9 -8 -9 -8 -8 -8 -8 -7 -7 -6 -7 -7 -7 -7 -7 -7 -7 -7
-6 -6 -6 -6 -6 -6 -6 -7 -7 -7 -6 -7 -7 -7 -8 -8 -8 -9 -10 -10 -10 -10 -10 -10 -9 -9 -9 -9 -10 -9 -9 -9 -9 -8 -8 -8 -8 -9 -8 -7 -8 -8 -8 -7 -7
-7 -6 -7 -7 -7 -7 -7 -7 -7 -7 -7 -7 -7 -7 -8 -8 -8 -8 -9 -10 -10 -10 -10 -11 -10 -9 -9 -9 -9 -9 -9 -9 -9 -9 -8 -8 -8 -8 -8 -8 -7 -8 -8 -8 -8
-7 -7 -7 -7 -8 -8 -8 -7 -8 -7 -8 -8 -8 -8 -8 -8 -8 -8 -9 -10 -11 -10 -11 -11 -10 -10 -9 -9 -9 -10 -10 -10 -10 -9 -9 -8 -9 -9 -9 -9 -9 -9 -9 -9 -9
-8 -8 -8 -8 -8 -8 -8 -8 -8 -9 -9 -8 -8 -8 -9 -9 -9 -10 -10 -10 -12 -12 -11 -11 -11 -11 -10 -10 -10 -10 -11 -10 -10 -10 -10 -10 -11 -12 -9 -8 -8 -9 -10 -9 -9
-8 -8 -9 -9 -9 -9 -9 -9 -9 -9 -9 -9 -9 -9 -10 -10 -11 -11 -13 -12 -12 -13 -12 -11 -11 -11 -11 -10 -11 -11 -10 -11 -11 -11 -11 -10 -11 -12 -8 -8 -9 -9 -10 -9 -10
-9 -9 -9 -9 -10 -10 -10 -9 -9 -9 -9 -9 -9 -10 -11 -11 -13 -14 -13 -13 -13 -12 -12 -12 -12 -12 -11 -12 -12 -12 -12 -12 -12 -12 -12 -12 -12 -9 -9 -10 -10 -10 -9 -10 -10

GFSSW_500_temp_300.txt.gz
Temp
-4 -4 -4 -4 -4 -4 -4 -4 -4 -4 -4 -5 -5 -5 -5 -5 -5 -6 -5 -5 -5 -5 -5 -6 -5 -5 -5 -6 -6 -6 -5 -4 -4 -4 -5 -4 -4 -4 -4 -5 -5 -5 -5 -5 -5
-4 -4 -4 -4 -4 -4 -4 -4 -4 -4 -4 -5 -5 -5 -5 -6 -6 -6 -6 -5 -5 -5 -5 -5 -5 -5 -5 -6 -6 -5 -5 -4 -4 -4 -4 -4 -4 -5 -6 -5 -6 -5 -6 -6 -6
-5 -4 -4 -4 -4 -4 -4 -4 -4 -4 -4 -5 -5 -5 -5 -6 -5 -5 -5 -6 -5 -5 -5 -6 -6 -5 -5 -5 -6 -6 -4 -4 -4 -5 -4 -4 -5 -5 -6 -5 -5 -5 -5 -5 -6
-5 -4 -4 -4 -4 -4 -4 -4 -3 -4 -4 -4 -5 -5 -5 -5 -6 -5 -5 -6 -5 -4 -6 -6 -6 -5 -5 -5 -5 -6 -5 -5 -5 -5 -4 -4 -5 -4 -4 -5 -4 -5 -5 -6 -5
-5 -5 -4 -4 -4 -4 -3 -3 -3 -3 -4 -4 -5 -5 -5 -5 -5 -5 -5 -6 -5 -5 -5 -6 -6 -5 -4 -5 -6 -5 -7 -6 -5 -5 -4 -4 -5 -5 -4 -4 -4 -4 -5 -5 -5
-5 -4 -4 -4 -4 -4 -3 -3 -3 -3 -3 -4 -4 -5 -5 -5 -6 -5 -4 -5 -5 -5 -5 -5 -6 -5 -5 -6 -5 -4 -5 -5 -5 -5 -4 -5 -5 -6 -5 -5 -5 -5 -5 -5 -5
-5 -4 -4 -4 -4 -3 -3 -3 -3 -3 -3 -4 -4 -5 -5 -5 -5 -5 -4 -5 -6 -5 -5 -5 -6 -5 -5 -5 -5 -5 -6 -5 -5 -5 -5 -5 -5 -5 -5 -5 -5 -5 -5 -4 -4
-4 -4 -4 -4 -4 -3 -3 -3 -2 -2 -2 -3 -3 -4 -4 -4 -5 -5 -5 -5 -5 -6 -5 -6 -5 -5 -6 -6 -5 -5 -5 -5 -5 -6 -5 -7 -6 -5 -6 -5 -5 -5 -5 -5 -5
-4 -4 -4 -4 -3 -3 -3 -3 -2 -2 -2 -2 -3 -3 -3 -4 -4 -5 -4 -5 -5 -5 -5 -6 -6 -5 -6 -5 -6 -5 -5 -5 -5 -6 -6 -5 -5 -5 -5 -5 -5 -5 -5 -5 -5
-4 -4 -4 -4 -3 -3 -3 -3 -3 -3 -2 -2 -2 -3 -3 -3 -3 -4 -5 -5 -5 -5 -5 -6 -6 -6 -6 -5 -6 -5 -5 -5 -6 -5 -5 -5 -5 -5 -5 -4 -4 -4 -5 -5 -5
-4 -4 -4 -3 -3 -3 -3 -3 -3 -3 -3 -3 -3 -3 -3 -2 -3 -4 -5 -7 -6 -5 -5 -6 -5 -5 -5 -5 -6 -6 -5 -5 -5 -5 -5 -5 -6 -6 -6 -5 -4 -4 -3 -4 -5
-4 -4 -4 -4 -3 -3 -3 -3 -3 -3 -3 -3 -3 -3 -3 -3 -2 -4 -4 -6 -6 -6 -5 -5 -5 -5 -5 -5 -7 -7 -6 -7 -6 -6 -5 -5 -5 -5 -4 -5 -4 -4 -4 -4 -4
-4 -4 -4 -4 -3 -3 -3 -3 -3 -3 -3 -3 -3 -3 -3 -3 -3 -3 -4 -5 -6 -6 -6 -5 -6 -6 -6 -6 -6 -7 -6 -5 -6 -5 -5 -5 -4 -5 -5 -4 -3 -4 -4 -4 -4
-4 -4 -4 -4 -4 -4 -3 -3 -3 -3 -3 -3 -3 -3 -3 -3 -3 -3 -4 -4 -5 -6 -6 -6 -6 -6 -7 -6 -6 -6 -7 -6 -6 -6 -6 -5 -4 -5 -5 -4 -4 -4 -5 -4 -5
-4 -4 -4 -4 -4 -4 -4 -3 -3 -4 -4 -3 -4 -4 -4 -4 -3 -4 -3 -3 -4 -5 -5 -5 -5 -6 -5 -6 -6 -6 -6 -6 -7 -6 -5 -6 -5 -6 -5 -4 -4 -5 -5 -4 -4
-4 -4 -4 -4 -4 -4 -4 -4 -4 -4 -4 -4 -4 -4 -4 -4 -4 -4 -4 -4 -4 -4 -4 -6 -6 -5 -6 -7 -6 -7 -7 -6 -6 -6 -5 -6 -7 -5 -5 -5 -4 -5 -5 -4 -4
-5 -4 -4 -4 -4 -4 -4 -4 -5 -5 -5 -4 -4 -4 -4 -5 -5 -5 -5 -4 -4 -4 -5 -5 -6 -6 -6 -6 -7 -7 -7 -7 -7 -7 -6 -8 -7 -5 -5 -6 -5 -5 -4 -4 -3
-5 -5 -4 -4 -4 -4 -4 -5 -5 -5 -5 -4 -4 -4 -4 -5 -5 -5 -5 -5 -5 -5 -5 -5 -6 -6 -6 -7 -8 -8 -8 -8 -8 -7 -8 -8 -7 -6 -6 -6 -7 -6 -4 -4 -4
-5 -5 -5 -5 -4 -4 -5 -5 -6 -5 -5 -5 -5 -5 -4 -4 -5 -5 -6 -6 -6 -6 -6 -6 -6 -7 -7 -7 -7 -7 -8 -8 -8 -8 -7 -8 -7 -7 -6 -6 -7 -6 -5 -5 -5
-5 -5 -5 -5 -5 -5 -5 -6 -6 -6 -5 -6 -6 -5 -5 -6 -6 -6 -6 -7 -7 -8 -8 -7 -6 -7 -7 -8 -8 -8 -8 -9 -9 -8 -7 -8 -8 -8 -7 -7 -7 -7 -6 -6 -6
-6 -6 -6 -5 -6 -6 -6 -6 -7 -6 -6 -6 -6 -6 -6 -7 -7 -8 -7 -7 -8 -7 -8 -9 -7 -7 -8 -9 -8 -9 -9 -9 -9 -9 -8 -8 -9 -7 -7 -7 -7 -7 -7 -8 -7
-7 -7 -6 -6 -6 -6 -6 -6 -7 -6 -6 -6 -6 -6 -7 -7 -7 -8 -8 -8 -8 -7 -8 -8 -8 -8 -8 -9 -9 -9 -9 -9 -9 -8 -8 -9 -9 -7 -7 -7 -7 -7 -7 -8 -8
-7 -7 -7 -7 -7 -7 -7 -7 -7 -7 -6 -7 -7 -7 -7 -7 -7 -8 -8 -9 -9 -8 -9 -9 -9 -9 -9 -9 -9 -9 -9 -9 -9 -9 -9 -9 -9 -8 -7 -7 -7 -7 -7 -8 -9
-7 -8 -8 -8 -8 -8 -8 -8 -8 -8 -8 -7 -7 -7 -7 -7 -7 -7 -8 -9 -9 -9 -9 -9 -9 -10 -10 -10 -9 -9 -10 -10 -10 -9 -9 -9 -9 -9 -8 -8 -8 -8 -8 -10 -10
-7 -8 -8 -8 -8 -9 -9 -9 -9 -9 -8 -8 -8 -8 -7 -7 -7 -7 -8 -8 -9 -9 -9 -9 -10 -10 -10 -10 -10 -9 -10 -10 -10 -10 -10 -9 -9 -9 -9 -9 -9 -9 -9 -10 -11
-8 -9 -9 -9 -9 -9 -9 -9 -9 -9 -8 -8 -9 -8 -8 -8 -8 -8 -8 -8 -8 -9 -10 -10 -10 -10 -11 -11 -10 -10 -11 -11 -10 -10 -10 -10 -10 -10 -10 -10 -10 -10 -10 -11 -11
-8 -9 -9 -9 -9 -9 -9 -9 -9 -9 -10 -11 -10 -9 -9 -9 -8 -8 -8 -8 -9 -9 -10 -10 -10 -11 -10 -11 -11 -11 -11 -11 -10 -11 -10 -10 -10 -10 -10 -10 -10 -11 -11 -11 -11

GFSSW_500_temp_303.txt.gz
Temp
-5 -5 -5 -5 -4 -4 -4 -4 -4 -5 -5 -6 -6 -6 -6 -6 -6 -5 -6 -5 -4 -4 -4 -5 -6 -5 -5 -5 -5 -5 -5 -5 -4 -4 -6 -4 -5 -5 -6 -6 -6 -6 -5 -6 -6
-5 -5 -5 -5 -4 -4 -4 -4 -4 -5 -5 -6 -6 -6 -6 -6 -6 -5 -5 -4 -5 -5 -5 -6 -5 -5 -5 -5 -4 -4 -4 -4 -4 -5 -5 -5 -6 -6 -6 -6 -7 -7 -7 -6 -7
-5 -5 -5 -4 -4 -4 -4 -4 -4 -4 -5 -6 -6 -6 -6 -6 -6 -5 -4 -5 -5 -5 -6 -5 -5 -5 -5 -5 -5 -4 -4 -4 -4 -4 -5 -4 -5 -5 -6 -6 -6 -6 -6 -7 -6
-5 -5 -5 -4 -4 -4 -4 -4 -4 -4 -5 -6 -5 -6 -6 -6 -6 -5 -5 -5 -5 -5 -5 -5 -5 -5 -5 -5 -5 -4 -4 -4 -4 -4 -5 -5 -5 -5 -5 -6 -6 -6 -6 -6 -6
-5 -5 -5 -4 -4 -4 -4 -4 -4 -4 -5 -5 -5 -6 -6 -5 -6 -4 -5 -5 -5 -6 -6 -6 -6 -6 -6 -6 -5 -3 -2 -4 -5 -4 -5 -5 -5 -5 -5 -5 -6 -6 -6 -6 -6
-5 -5 -5 -4 -4 -4 -4 -4 -4 -4 -4 -5 -5 -5 -5 -5 -5 -5 -6 -6 -6 -6 -5 -6 -5 -5 -6 -5 -6 -4 -3 -4 -5 -5 -5 -5 -5 -5 -5 -5 -5 -5 -5 -5 -5
-5 -5 -5 -4 -4 -4 -3 -3 -4 -4 -4 -5 -5 -5 -5 -5 -6 -5 -5 -5 -5 -5 -5 -5 -5 -6 -5 -6 -4 -4 -4 -5 -5 -5 -5 -5 -5 -4 -4 -5 -5 -5 -5 -5 -5
-5 -5 -4 -4 -4 -4 -3 -3 -3 -4 -4 -4 -5 -5 -5 -5 -5 -6 -5 -6 -6 -5 -6 -6 -6 -6 -6 -6 -6 -5 -5 -4 -5 -5 -6 -5 -5 -5 -5 -5 -5 -5 -5 -6 -6
-5 -4 -4 -4 -4 -3 -3 -3 -3 -4 -4 -4 -4 -4 -4 -4 -5 -5 -4 -5 -5 -6 -5 -5 -6 -6 -5 -5 -6 -6 -5 -5 -5 -5 -4 -5 -5 -5 -5 -5 -5 -5 -5 -6 -6
-4 -4 -4 -4 -3 -3 -3 -3 -3 -4 -4 -4 -4 -4 -4 -3 -3 -4 -4 -4 -5 -6 -5 -6 -6 -6 -6 -5 -6 -6 -6 -5 -5 -5 -5 -5 -5 -5 -5 -4 -4 -5 -4 -4 -5
-4 -4 -4 -4 -3 -3 -3 -3 -3 -3 -3 -4 -4 -4 -4 -4 -4 -4 -4 -5 -5 -6 -5 -5 -5 -5 -6 -7 -7 -6 -6 -6 -6 -5 -6 -6 -6 -5 -6 -5 -4 -4 -4 -5 -4
-4 -4 -4 -4 -3 -3 -3 -3 -3 -3 -3 -3 -4 -4 -4 -4 -5 -4 -3 -4 -5 -6 -6 -5 -5 -6 -6 -6 -6 -6 -7 -6 -5 -6 -5 -5 -5 -6 -6 -5 -6 -4 -4 -4 -4
-4 -4 -4 -4 -4 -4 -3 -3 -3 -3 -3 -3 -3 -4 -4 -4 -4 -5 -4 -5 -7 -7 -7 -6 -5 -6 -6 -6 -7 -6 -7 -6 -5 -6 -4 -5 -6 -5 -5 -6 -6 -5 -4 -4 -3
-4 -4 -4 -4 -4 -4 -4 -4 -4 -4 -4 -4 -4 -4 -4 -4 -4 -5 -5 -6 -6 -7 -7 -6 -6 -6 -7 -7 -7 -6 -7 -7 -7 -6 -6 -5 -5 -5 -5 -5 -6 -7 -6 -5 -4
-4 -4 -4 -4 -4 -4 -4 -4 -4 -4 -4 -4 -4 -4 -4 -4 -5 -5 -5 -5 -6 -7 -6 -6 -5 -6 -6 -6 -7 -7 -7 -8 -7 -5 -6 -6 -5 -5 -4 -5 -5 -6 -5 -5 -5
-4 -4 -4 -4 -4 -4 -4 -4 -4 -5 -5 -5 -5 -5 -4 -4 -4 -5 -5 -5 -6 -5 -5 -6 -5 -5 -6 -6 -6 -7 -6 -7 -7 -6 -5 -7 -4 -5 -4 -3 -4 -5 -6 -5 -5
-4 -4 -4 -4 -4 -4 -4 -5 -5 -5 -5 -5 -5 -5 -5 -5 -5 -5 -5 -5 -6 -6 -6 -7 -6 -6 -7 -6 -6 -7 -7 -7 -7 -7 -6 -7 -5 -6 -5 -4 -4 -5 -6 -6 -6
-5 -4 -4 -4 -4 -5 -5 -5 -5 -5 -5 -5 -5 -5 -6 -5 -5 -6 -5 -5 -6 -6 -6 -6 -7 -7 -8 -8 -7 -8 -7 -8 -8 -7 -7 -8 -7 -6 -6 -5 -4 -4 -5 -6 -6
-5 -5 -5 -5 -5 -5 -5 -5 -5 -5 -5 -5 -5 -5 -5 -5 -6 -6 -6 -6 -7 -7 -6 -6 -6 -7 -7 -8 -8 -9 -8 -8 -8 -8 -8 -7 -7 -6 -6 -5 -5 -5 -4 -5 -5
-5 -5 -5 -5 -5 -5 -6 -6 -6 -5 -6 -6 -6 -6 -6 -6 -6 -6 -7 -7 -7 -6 -6 -7 -7 -8 -8 -8 -9 -9 -8 -8 -9 -8 -8 -8 -7 -7 -7 -6 -6 -6 -5 -5 -5
-5 -5 -6 -6 -6 -6 -6 -6 -6 -5 -6 -6 -6 -6 -6 -6 -6 -7 -7 -7 -7 -7 -7 -7 -7 -8 -8 -9 -9 -9 -9 -9 -8 -9 -9 -9 -8 -8 -8 -7 -7 -7 -7 -6 -6
-5 -6 -6 -6 -7 -7 -7 -7 -7 -6 -6 -6 -6 -7 -7 -7 -7 -8 -8 -8 -8 -8 -8 -8 -8 -8 -8 -9 -9 -10 -9 -9 -9 -9 -9 -9 -8 -8 -8 -8 -7 -7 -7 -7 -6
-6 -6 -7 -7 -7 -7 -7 -7 -8 -8 -7 -7 -7 -7 -7 -8 -8 -8 -9 -9 -9 -9 -9 -9 -9 -8 -9 -9 -9 -9 -10 -10 -10 -9 -10 -10 -9 -8 -8 -9 -8 -8 -8 -8 -8
-6 -6 -7 -7 -7 -8 -8 -8 -8 -8 -8 -8 -8 -8 -8 -8 -8 -8 -8 -8 -9 -9 -10 -10 -10 -9 -9 -10 -9 -9 -9 -9 -9 -10 -10 -9 -9 -9 -9 -9 -9 -9 -8 -9 -8
-6 -7 -7 -7 -8 -8 -9 -9 -9 -9 -8 -8 -8 -8 -8 -8 -8 -8 -7 -8 -8 -9 -10 -10 -10 -10 -10 -10 -10 -10 -9 -9 -9 -10 -10 -10 -9 -9 -9 -9 -9 -9 -9 -9 -9
-6 -7 -8 -8 -8 -9 -9 -9 -10 -9 -9 -9 -9 -9 -9 -9 -9 -8 -8 -8 -8 -8 -10 -10 -10 -10 -10 -10 -10 -10 -10 -10 -10 -10 -10 -10 -10 -10 -10 -10 -10 -10 -10 -10 -10
-7 -7 -8 -8 -9 -9 -9 -10 -10 -10 -10 -10 -10 -9 -10 -10 -10 -8 -9 -9 -9 -9 -9 -9 -10 -10 -10 -10 -11 -11 -11 -11 -11 -11 -11 -11 -10 -10 -10 -10 -11 -11 -11 -10 -10

GFSSW_500_temp_306.txt.gz
Temp
-5 -5 -5 -5 -5 -5 -4 -5 -5 -6 -6 -6 -6 -6 -5 -5 -5 -4 -5 -5 -5 -6 -6 -6 -5 -5 -5 -5 -5 -5 -5 -4 -4 -4 -4 -5 -5 -5 -6 -6 -6 -7 -6 -6 -7
-5 -5 -5 -5 -5 -5 -4 -5 -5 -6 -5 -6 -6 -6 -5 -5 -5 -5 -5 -5 -5 -6 -5 -5 -6 -5 -5 -5 -5 -4 -4 -4 -3 -4 -5 -5 -5 -5 -6 -6 -6 -7 -7 -7 -7
-5 -5 -5 -5 -5 -5 -5 -5 -5 -5 -5 -5 -6 -6 -6 -6 -5 -5 -5 -5 -6 -5 -5 -6 -6 -6 -5 -5 -5 -4 -4 -3 -4 -4 -5 -5 -5 -6 -6 -6 -6 -6 -6 -6 -6
-5 -5 -5 -5 -5 -5 -5 -5 -5 -5 -5 -5 -5 -5 -6 -5 -6 -6 -6 -5 -5 -6 -5 -6 -5 -5 -5 -5 -4 -3 -3 -4 -4 -4 -5 -5 -5 -5 -6 -6 -6 -6 -6 -6 -6
-5 -5 -5 -5 -5 -4 -4 -5 -5 -5 -5 -5 -5 -6 -6 -6 -6 -6 -6 -5 -5 -5 -6 -6 -5 -5 -5 -5 -4 -4 -3 -4 -5 -5 -4 -5 -5 -6 -6 -6 -6 -6 -6 -6 -6
-5 -5 -5 -5 -5 -4 -4 -4 -5 -5 -5 -4 -4 -5 -5 -5 -5 -5 -5 -5 -5 -5 -5 -5 -6 -5 -5 -6 -5 -4 -4 -4 -4 -4 -5 -5 -5 -6 -6 -6 -6 -6 -6 -5 -5
-5 -5 -5 -5 -5 -4 -4 -4 -5 -5 -4 -4 -4 -5 -5 -5 -5 -5 -4 -4 -5 -5 -6 -6 -6 -6 -6 -5 -5 -4 -4 -5 -5 -4 -4 -5 -5 -6 -6 -6 -6 -6 -6 -6 -5
-5 -5 -5 -4 -4 -4 -4 -4 -4 -5 -5 -4 -4 -4 -5 -5 -5 -5 -5 -5 -5 -5 -6 -6 -6 -6 -6 -5 -5 -5 -4 -4 -4 -4 -4 -5 -5 -5 -5 -6 -6 -5 -6 -6 -6
-5 -5 -4 -4 -4 -4 -4 -4 -4 -4 -4 -4 -4 -4 -5 -5 -5 -5 -4 -5 -5 -5 -5 -6 -6 -6 -7 -6 -5 -5 -5 -4 -4 -5 -4 -4 -4 -4 -5 -5 -6 -6 -5 -5 -6
-5 -5 -4 -4 -4 -4 -4 -4 -4 -4 -4 -4 -4 -4 -4 -5 -5 -5 -5 -5 -5 -5 -5 -6 -6 -6 -6 -6 -6 -5 -5 -5 -5 -5 -5 -4 -4 -5 -5 -5 -5 -5 -5 -5 -5
-5 -4 -4 -4 -4 -3 -3 -4 -4 -4 -4 -4 -4 -5 -4 -5 -5 -5 -5 -5 -5 -5 -5 -5 -6 -6 -5 -6 -6 -6 -6 -6 -6 -6 -6 -6 -5 -5 -5 -4 -5 -4 -5 -5 -5
-4 -4 -4 -4 -4 -4 -4 -4 -4 -4 -4 -4 -4 -4 -4 -4 -4 -5 -5 -5 -5 -5 -6 -6 -6 -5 -5 -5 -6 -6 -6 -6 -6 -6 -6 -6 -6 -5 -5 -5 -4 -5 -4 -4 -5
-4 -4 -4 -4 -4 -4 -4 -4 -4 -4 -4 -4 -4 -4 -4 -4 -4 -5 -5 -5 -6 -7 -7 -7 -6 -6 -6 -5 -6 -6 -5 -5 -5 -6 -6 -6 -6 -7 -6 -6 -5 -5 -4 -4 -4
-5 -5 -4 -4 -4 -4 -4 -4 -4 -4 -4 -4 -4 -4 -4 -4 -4 -4 -4 -5 -5 -7 -7 -7 -7 -7 -6 -6 -5 -6 -6 -5 -5 -6 -6 -6 -6 -6 -6 -6 -6 -6 -6 -5 -4
-4 -4 -4 -4 -4 -4 -4 -4 -4 -4 -4 -4 -4 -5 -5 -4 -4 -4 -5 -7 -5 -6 -6 -7 -7 -8 -7 -7 -7 -6 -6 -6 -5 -6 -6 -6 -6 -6 -4 -5 -6 -6 -5 -6 -6
-4 -4 -4 -4 -4 -4 -4 -4 -5 -5 -4 -4 -5 -5 -5 -5 -5 -5 -5 -5 -6 -5 -5 -6 -6 -6 -7 -7 -7 -7 -7 -6 -6 -6 -6 -7 -5 -5 -5 -5 -6 -6 -5 -6 -6
-4 -4 -4 -4 -4 -4 -4 -4 -4 -5 -5 -5 -5 -5 -5 -5 -5 -6 -6 -6 -6 -6 -6 -7 -8 -6 -7 -8 -7 -7 -7 -8 -7 -7 -6 -7 -6 -5 -5 -6 -6 -7 -7 -6 -7
-5 -5 -5 -5 -5 -5 -5 -5 -5 -5 -5 -5 -5 -5 -5 -5 -5 -6 -6 -6 -7 -7 -7 -6 -7 -7 -7 -8 -7 -7 -7 -7 -6 -7 -7 -7 -5 -5 -6 -6 -6 -7 -7 -7 -7
-4 -5 -5 -5 -5 -5 -5 -5 -5 -5 -6 -6 -6 -6 -6 -6 -6 -6 -6 -6 -6 -7 -7 -7 -7 -8 -7 -9 -8 -8 -7 -9 -8 -8 -7 -5 -5 -4 -5 -6 -6 -6 -7 -7 -6
-4 -4 -5 -5 -6 -5 -5 -6 -6 -5 -6 -6 -6 -6 -6 -6 -7 -7 -7 -7 -7 -7 -6 -6 -7 -7 -7 -9 -9 -8 -8 -9 -9 -8 -8 -7 -6 -7 -6 -6 -6 -6 -7 -7 -7
-4 -4 -5 -5 -6 -6 -6 -6 -6 -5 -6 -6 -6 -7 -7 -7 -7 -7 -8 -7 -8 -8 -8 -8 -8 -8 -8 -7 -8 -9 -8 -8 -8 -8 -8 -7 -6 -7 -7 -7 -7 -8 -7 -7 -7
-4 -4 -5 -5 -6 -7 -7 -7 -7 -7 -7 -7 -7 -7 -7 -7 -8 -8 -8 -8 -8 -8 -8 -8 -8 -8 -9 -9 -8 -9 -9 -9 -9 -9 -9 -8 -7 -8 -7 -8 -8 -8 -8 -8 -8
-4 -4 -5 -5 -6 -7 -8 -8 -8 -8 -8 -8 -8 -8 -8 -8 -9 -9 -9 -9 -9 -9 -9 -9 -9 -8 -8 -8 -9 -8 -9 -9 -9 -9 -9 -9 -9 -9 -9 -8 -8 -8 -8 -8 -8
-5 -5 -5 -6 -7 -7 -8 -8 -8 -9 -9 -8 -8 -8 -9 -9 -9 -10 -10 -10 -10 -10 -10 -10 -10 -9 -9 -9 -9 -9 -9 -9 -9 -10 -10 -10 -10 -10 -10 -10 -9 -9 -8 -9 -9
-5 -5 -5 -6 -7 -8 -8 -9 -9 -9 -9 -9 -9 -9 -9 -9 -10 -10 -10 -9 -9 -9 -9 -10 -10 -10 -10 -10 -10 -10 -10 -10 -10 -10 -9 -9 -9 -10 -10 -10 -10 -10 -10 -9 -10
-6 -6 -6 -6 -7 -8 -9 -9 -9 -10 -10 -9 -9 -9 -9 -10 -10 -10 -10 -10 -9 -9 -9 -9 -10 -10 -10 -10 -10 -10 -10 -10 -10 -10 -10 -10 -10 -10 -10 -10 -10 -10 -10 -10 -10
-6 -6 -6 -7 -8 -8 -9 -9 -9 -10 -10 -10 -10 -10 -10 -11 -11 -10 -10 -10 -10 -10 -9 -9 -10 -10 -10 -10 -10 -10 -10 -11 -11 -11 -11 -11 -11 -11 -11 -11 -11 -11 -11 -11 -11

GFSSW_500_temp_309.txt.gz
Temp
-5 -5 -5 -5 -5 -5 -5 -5 -6 -6 -5 -5 -5 -5 -5 -5 -5 -6 -6 -6 -5 -5 -5 -5 -5 -5 -5 -5 -5 -5 -4 -4 -4 -4 -4 -5 -5 -5 -5 -6 -6 -6 -6 -6 -6
-5 -5 -5 -5 -5 -5 -5 -5 -5 -6 -5 -5 -5 -5 -5 -5 -6 -5 -5 -6 -6 -5 -5 -6 -5 -6 -6 -6 -5 -4 -4 -4 -4 -4 -5 -5 -5 -5 -5 -5 -5 -5 -6 -6 -6
-5 -5 -5 -5 -5 -5 -5 -5 -5 -6 -5 -5 -5 -5 -5 -5 -6 -5 -5 -5 -5 -5 -5 -5 -6 -6 -6 -6 -5 -5 -5 -4 -4 -4 -5 -5 -5 -5 -5 -5 -5 -6 -6 -6 -6
-5 -5 -5 -5 -5 -5 -5 -5 -5 -5 -5 -5 -5 -5 -5 -5 -6 -5 -6 -5 -5 -5 -5 -6 -5 -6 -6 -5 -5 -5 -4 -4 -3 -4 -5 -5 -5 -5 -5 -5 -5 -5 -6 -6 -6
-5 -5 -5 -5 -5 -5 -4 -5 -5 -5 -5 -5 -5 -5 -5 -5 -5 -5 -5 -5 -6 -5 -5 -5 -6 -6 -6 -5 -5 -5 -5 -3 -3 -4 -5 -5 -5 -5 -5 -5 -6 -5 -5 -6 -6
-5 -5 -5 -5 -5 -5 -4 -4 -5 -4 -5 -5 -5 -6 -5 -5 -5 -4 -5 -5 -5 -5 -5 -5 -5 -6 -6 -6 -5 -5 -5 -4 -4 -4 -4 -5 -5 -5 -5 -6 -5 -6 -6 -6 -6
-5 -5 -5 -5 -5 -4 -4 -4 -4 -4 -4 -5 -5 -5 -5 -5 -5 -5 -5 -5 -5 -5 -5 -5 -5 -6 -5 -5 -5 -5 -5 -5 -4 -4 -4 -4 -5 -5 -5 -5 -5 -5 -5 -6 -6
-5 -5 -5 -5 -5 -4 -4 -4 -4 -4 -4 -5 -5 -5 -5 -5 -4 -5 -5 -5 -5 -6 -5 -6 -5 -5 -5 -5 -5 -5 -5 -5 -5 -5 -5 -5 -5 -5 -5 -5 -5 -5 -5 -5 -6
-5 -5 -5 -5 -4 -4 -4 -4 -4 -4 -4 -5 -5 -5 -5 -5 -5 -5 -5 -5 -5 -5 -6 -6 -5 -6 -6 -5 -5 -5 -5 -6 -6 -6 -6 -6 -5 -5 -6 -6 -5 -5 -5 -4 -5
-5 -5 -5 -4 -4 -4 -4 -4 -4 -4 -4 -4 -5 -5 -5 -5 -5 -5 -5 -5 -5 -5 -5 -5 -5 -6 -6 -6 -5 -6 -5 -5 -5 -5 -5 -5 -5 -5 -5 -5 -5 -5 -5 -4 -4
-5 -5 -4 -4 -4 -4 -4 -4 -4 -4 -4 -4 -5 -4 -5 -5 -5 -5 -6 -6 -5 -5 -5 -4 -5 -5 -5 -5 -6 -5 -5 -6 -5 -5 -5 -4 -4 -4 -4 -4 -5 -5 -5 -5 -4
-5 -5 -4 -4 -4 -4 -4 -4 -3 -3 -3 -4 -3 -4 -4 -5 -5 -5 -6 -6 -6 -5 -5 -6 -6 -6 -5 -7 -6 -6 -6 -5 -6 -5 -5 -5 -5 -5 -4 -4 -4 -5 -5 -4 -4
-5 -4 -4 -4 -4 -4 -4 -4 -3 -4 -4 -4 -4 -4 -4 -4 -4 -6 -6 -6 -6 -6 -6 -6 -6 -6 -6 -6 -6 -6 -6 -6 -5 -5 -5 -5 -6 -5 -4 -4 -4 -4 -4 -5 -5
-5 -5 -4 -4 -4 -4 -4 -4 -4 -4 -4 -4 -4 -4 -4 -4 -4 -4 -4 -5 -6 -7 -6 -6 -7 -7 -6 -6 -6 -6 -6 -6 -5 -5 -5 -5 -5 -5 -5 -5 -5 -4 -5 -5 -5
-5 -5 -5 -5 -4 -4 -4 -4 -4 -4 -4 -4 -4 -4 -4 -4 -4 -4 -4 -5 -5 -6 -6 -6 -6 -7 -7 -7 -6 -6 -6 -5 -6 -6 -6 -6 -6 -7 -7 -7 -6 -6 -5 -5 -5
-4 -4 -4 -4 -4 -4 -4 -4 -4 -4 -4 -4 -4 -4 -4 -4 -4 -4 -4 -5 -6 -5 -5 -5 -6 -6 -7 -7 -7 -6 -6 -6 -6 -6 -6 -6 -6 -7 -7 -7 -7 -7 -6 -6 -5
-5 -5 -4 -4 -4 -4 -4 -4 -5 -4 -4 -4 -4 -4 -4 -4 -4 -5 -4 -5 -5 -6 -6 -7 -7 -7 -7 -7 -7 -8 -8 -8 -6 -6 -6 -6 -5 -6 -7 -7 -7 -7 -7 -7 -7
-5 -5 -5 -5 -5 -5 -5 -5 -5 -5 -5 -5 -5 -5 -5 -5 -5 -5 -6 -5 -6 -6 -6 -6 -7 -8 -8 -7 -7 -8 -7 -8 -7 -6 -6 -6 -5 -6 -7 -6 -7 -7 -8 -8 -7
-4 -4 -5 -5 -5 -5 -5 -5 -5 -5 -5 -5 -6 -6 -6 -6 -6 -6 -6 -6 -6 -7 -6 -6 -6 -7 -7 -7 -8 -7 -7 -8 -8 -7 -7 -6 -6 -6 -6 -6 -6 -7 -7 -8 -8
-4 -4 -4 -4 -5 -6 -6 -6 -5 -5 -6 -6 -6 -6 -6 -7 -7 -7 -7 -7 -7 -7 -7 -7 -7 -7 -7 -7 -7 -7 -8 -8 -9 -8 -7 -7 -7 -8 -7 -7 -7 -7 -7 -8 -8
-4 -4 -4 -4 -5 -6 -6 -7 -7 -6 -7 -7 -7 -7 -7 -7 -7 -8 -8 -8 -8 -8 -8 -8 -8 -9 -8 -8 -8 -7 -7 -8 -9 -8 -8 -7 -8 -8 -9 -8 -8 -7 -7 -8 -8
-4 -4 -4 -4 -5 -5 -6 -7 -7 -7 -7 -7 -7 -8 -8 -8 -8 -8 -8 -8 -8 -9 -9 -9 -8 -8 -9 -9 -8 -8 -8 -8 -8 -8 -8 -8 -7 -8 -9 -9 -9 -9 -9 -8 -8
-4 -5 -4 -5 -5 -6 -6 -7 -8 -8 -8 -8 -8 -9 -9 -9 -9 -9 -9 -9 -9 -10 -10 -9 -9 -8 -8 -9 -9 -9 -9 -9 -9 -9 -9 -9 -9 -9 -9 -9 -9 -9 -9 -9 -9
-5 -5 -5 -5 -5 -6 -6 -7 -8 -8 -9 -9 -9 -9 -10 -10 -10 -10 -10 -10 -10 -10 -10 -10 -9 -9 -9 -9 -9 -9 -9 -9 -9 -9 -9 -9 -9 -10 -10 -10 -10 -10 -10 -10 -9
-5 -5 -5 -6 -5 -6 -6 -7 -8 -8 -9 -9 -9 -9 -10 -10 -11 -11 -12 -11 -11 -11 -10 -10 -10 -10 -10 -9 -9 -10 -10 -9 -9 -10 -10 -10 -10 -10 -10 -10 -10 -10 -10 -10 -10
-5 -5 -6 -6 -6 -6 -7 -7 -8 -9 -9 -10 -10 -10 -10 -10 -11 -11 -11 -11 -11 -11 -11 -10 -10 -9 -9 -10 -10 -10 -10 -11 -10 -10 -10 -11 -11 -11 -11 -11 -11 -11 -11 -11 -11
-5 -6 -6 -6 -6 -7 -7 -8 -9 -9 -10 -10 -10 -10 -11 -11 -10 -10 -10 -11 -10 -10 -11 -11 -10 -10 -10 -10 -10 -10 -11 -11 -11 -11 -11 -11 -11 -11 -11 -11 -11 -11 -11 -11 -11